<?xml version='1.0' encoding='UTF-8'?>
<gpx xmlns="http://www.topografix.com/GPX/1/1" creator="www.balnam.be" version="1.1" xmlns:xsi="http://www.w3.org/2001/XMLSchema-instance" xsi:schemaLocation="http://www.topografix.com/GPX/1/1 http://www.topografix.com/GPX/1/1/gpx.xsd">
<trk>
<name>lhawa1</name>
<cmt>v</cmt>
<desc>Wansin Chemin n°1 </desc>
<link href="https://chemins.be/wansin/chemin/1"/><trkseg>
<trkpt lat="50.677693" lon="4.999071"><time>2026-05-02T17:29:12Z</time></trkpt>
<trkpt lat="50.677692" lon="4.999354"><time>2026-05-02T17:39:12Z</time></trkpt>
<trkpt lat="50.677291" lon="5.001966"><time>2026-05-02T17:49:12Z</time></trkpt>
<trkpt lat="50.676421" lon="5.004940"><time>2026-05-02T17:59:12Z</time></trkpt>
<trkpt lat="50.675464" lon="5.007318"><time>2026-05-02T18:09:12Z</time></trkpt>
<trkpt lat="50.674947" lon="5.008245"><time>2026-05-02T18:19:12Z</time></trkpt>
</trkseg>
</trk>
<trk>
<name>lhawa11</name>
<cmt>r</cmt>
<desc>Wansin Chemin n°11 Rue d'Orp</desc>
<link href="https://chemins.be/wansin/chemin/11"/><trkseg>
<trkpt lat="50.679655" lon="5.009285"><time>2026-05-02T17:29:12Z</time></trkpt>
<trkpt lat="50.680183" lon="5.009203"><time>2026-05-02T17:39:12Z</time></trkpt>
</trkseg></trk>
<trk>
<name>lhawa11</name>
<cmt>q</cmt>
<desc>Wansin Chemin n°11 Rue d'Orp</desc>
<link href="https://chemins.be/wansin/chemin/11"/><trkseg>
<trkpt lat="50.680183" lon="5.009203"><time>2026-05-02T17:39:12Z</time></trkpt>
<trkpt lat="50.680605" lon="5.008254"><time>2026-05-02T17:49:12Z</time></trkpt>
</trkseg></trk>
<trk>
<name>lhawa11</name>
<cmt>d</cmt>
<desc>Wansin Chemin n°11 Rue d'Orp</desc>
<link href="https://chemins.be/wansin/chemin/11"/><trkseg>
<trkpt lat="50.680605" lon="5.008254"><time>2026-05-02T17:49:12Z</time></trkpt>
<trkpt lat="50.680745" lon="5.008054"><time>2026-05-02T17:59:12Z</time></trkpt>
<trkpt lat="50.681054" lon="5.006947"><time>2026-05-02T18:09:12Z</time></trkpt>
<trkpt lat="50.681212" lon="5.006782"><time>2026-05-02T18:19:12Z</time></trkpt>
<trkpt lat="50.681294" lon="5.006382"><time>2026-05-02T18:29:12Z</time></trkpt>
<trkpt lat="50.681539" lon="5.006256"><time>2026-05-02T18:39:12Z</time></trkpt>
<trkpt lat="50.681674" lon="5.005870"><time>2026-05-02T18:49:12Z</time></trkpt>
<trkpt lat="50.682221" lon="5.004922"><time>2026-05-02T18:59:12Z</time></trkpt>
<trkpt lat="50.682232" lon="5.004297"><time>2026-05-02T19:09:12Z</time></trkpt>
<trkpt lat="50.683002" lon="5.003138"><time>2026-05-02T19:19:12Z</time></trkpt>
<trkpt lat="50.684108" lon="5.002666"><time>2026-05-02T19:29:12Z</time></trkpt>
<trkpt lat="50.684097" lon="5.002076"><time>2026-05-02T19:39:12Z</time></trkpt>
</trkseg>
</trk>
<trk>
<name>lhawa12</name>
<cmt>d</cmt>
<desc>Wansin Chemin n°12 </desc>
<link href="https://chemins.be/wansin/chemin/12"/><trkseg>
<trkpt lat="50.676696" lon="5.020477"><time>2026-05-02T17:29:12Z</time></trkpt>
<trkpt lat="50.676717" lon="5.020618"><time>2026-05-02T17:39:12Z</time></trkpt>
<trkpt lat="50.676621" lon="5.020903"><time>2026-05-02T17:49:12Z</time></trkpt>
</trkseg></trk>
<trk>
<name>lhawa12</name>
<cmt>s</cmt>
<desc>Wansin Chemin n°12 </desc>
<link href="https://chemins.be/wansin/chemin/12"/><trkseg>
<trkpt lat="50.676621" lon="5.020903"><time>2026-05-02T17:49:12Z</time></trkpt>
<trkpt lat="50.675593" lon="5.023053"><time>2026-05-02T17:59:12Z</time></trkpt>
<trkpt lat="50.675558" lon="5.024439"><time>2026-05-02T18:09:12Z</time></trkpt>
<trkpt lat="50.675394" lon="5.024762"><time>2026-05-02T18:19:12Z</time></trkpt>
</trkseg>
</trk>
<trk>
<name>lhawa14</name>
<cmt>v</cmt>
<desc>Wansin Chemin n°14 Chemin du Tiège</desc>
<link href="https://chemins.be/wansin/chemin/14"/><trkseg>
<trkpt lat="50.678164" lon="5.011341"><time>2026-05-02T17:29:12Z</time></trkpt>
<trkpt lat="50.678509" lon="5.011746"><time>2026-05-02T17:39:12Z</time></trkpt>
<trkpt lat="50.678774" lon="5.012075"><time>2026-05-02T17:49:12Z</time></trkpt>
<trkpt lat="50.678787" lon="5.012254"><time>2026-05-02T17:59:12Z</time></trkpt>
<trkpt lat="50.678310" lon="5.013896"><time>2026-05-02T18:09:12Z</time></trkpt>
</trkseg>
</trk>
<trk>
<name>lhawa15</name>
<cmt>v</cmt>
<desc>Wansin Chemin n°15 Rue Emiloe Permanne</desc>
<link href="https://chemins.be/wansin/chemin/15"/><trkseg>
<trkpt lat="50.678499" lon="5.021070"><time>2026-05-02T17:29:12Z</time></trkpt>
<trkpt lat="50.679138" lon="5.022466"><time>2026-05-02T17:39:12Z</time></trkpt>
<trkpt lat="50.679601" lon="5.024821"><time>2026-05-02T17:49:12Z</time></trkpt>
<trkpt lat="50.679820" lon="5.025311"><time>2026-05-02T17:59:12Z</time></trkpt>
</trkseg>
</trk>
<trk>
<name>lhawa15bis</name>
<cmt>v</cmt>
<desc>Wansin Sentier n°15bis Rue Louis Claes</desc>
<link href="https://chemins.be/wansin/sentier/15bis"/><trkseg>
<trkpt lat="50.687660" lon="5.001802"><time>2026-05-02T17:29:12Z</time></trkpt>
<trkpt lat="50.687515" lon="5.001620"><time>2026-05-02T17:39:12Z</time></trkpt>
</trkseg></trk>
<trk>
<name>lhawa15bis</name>
<cmt>b</cmt>
<desc>Wansin Sentier n°15bis Rue Louis Claes</desc>
<link href="https://chemins.be/wansin/sentier/15bis"/><trkseg>
<trkpt lat="50.687515" lon="5.001620"><time>2026-05-02T17:39:12Z</time></trkpt>
<trkpt lat="50.686489" lon="5.000547"><time>2026-05-02T17:49:12Z</time></trkpt>
</trkseg>
</trk>
<trk>
<name>lhawa17</name>
<cmt>v</cmt>
<desc>Wansin Chemin n°17 Rue du Cherra</desc>
<link href="https://chemins.be/wansin/chemin/17"/><trkseg>
<trkpt lat="50.671727" lon="5.021397"><time>2026-05-02T17:29:12Z</time></trkpt>
<trkpt lat="50.671794" lon="5.022023"><time>2026-05-02T17:39:12Z</time></trkpt>
</trkseg></trk>
<trk>
<name>lhawa17</name>
<cmt>q</cmt>
<desc>Wansin Chemin n°17 Rue du Cherra</desc>
<link href="https://chemins.be/wansin/chemin/17"/><trkseg>
<trkpt lat="50.671794" lon="5.022023"><time>2026-05-02T17:39:12Z</time></trkpt>
<trkpt lat="50.671868" lon="5.022641"><time>2026-05-02T17:49:12Z</time></trkpt>
</trkseg>
</trk>
<trk>
<name>lhawa18</name>
<cmt>v</cmt>
<desc>Wansin Sentier n°18 </desc>
<link href="https://chemins.be/wansin/sentier/18"/><trkseg>
<trkpt lat="50.661439" lon="5.017100"><time>2026-05-02T17:29:12Z</time></trkpt>
<trkpt lat="50.659885" lon="5.010506"><time>2026-05-02T17:39:12Z</time></trkpt>
</trkseg>
</trk>
<trk>
<name>lhawa19</name>
<cmt>q</cmt>
<desc>Wansin Sentier n°19 </desc>
<link href="https://chemins.be/wansin/sentier/19"/><trkseg>
<trkpt lat="50.678045" lon="5.013735"><time>2026-05-02T17:29:12Z</time></trkpt>
<trkpt lat="50.677005" lon="5.013282"><time>2026-05-02T17:39:12Z</time></trkpt>
<trkpt lat="50.674918" lon="5.011782"><time>2026-05-02T17:49:12Z</time></trkpt>
<trkpt lat="50.672286" lon="5.009850"><time>2026-05-02T17:59:12Z</time></trkpt>
</trkseg>
</trk>
<trk>
<name>lhawa2</name>
<cmt>s</cmt>
<desc>Wansin Chemin n°2 </desc>
<link href="https://chemins.be/wansin/chemin/2"/><trkseg>
<trkpt lat="50.675042" lon="5.012494"><time>2026-05-02T17:29:12Z</time></trkpt>
<trkpt lat="50.674625" lon="5.009962"><time>2026-05-02T17:39:12Z</time></trkpt>
<trkpt lat="50.675097" lon="5.007459"><time>2026-05-02T17:49:12Z</time></trkpt>
<trkpt lat="50.674408" lon="5.000564"><time>2026-05-02T17:59:12Z</time></trkpt>
<trkpt lat="50.673873" lon="4.997946"><time>2026-05-02T18:09:12Z</time></trkpt>
</trkseg>
</trk>
<trk>
<name>lhawa20</name>
<cmt>q</cmt>
<desc>Wansin Sentier n°20 </desc>
<link href="https://chemins.be/wansin/sentier/20"/><trkseg>
<trkpt lat="50.674971" lon="5.018460"><time>2026-05-02T17:29:12Z</time></trkpt>
<trkpt lat="50.675559" lon="5.017860"><time>2026-05-02T17:39:12Z</time></trkpt>
<trkpt lat="50.676351" lon="5.014489"><time>2026-05-02T17:49:12Z</time></trkpt>
<trkpt lat="50.677647" lon="5.012456"><time>2026-05-02T17:59:12Z</time></trkpt>
</trkseg>
</trk>
<trk>
<name>lhawa21</name>
<cmt>q</cmt>
<desc>Wansin Sentier n°21 </desc>
<link href="https://chemins.be/wansin/sentier/21"/><trkseg>
<trkpt lat="50.677214" lon="5.019956"><time>2026-05-02T17:29:12Z</time></trkpt>
<trkpt lat="50.677050" lon="5.019801"><time>2026-05-02T17:39:12Z</time></trkpt>
<trkpt lat="50.677075" lon="5.019617"><time>2026-05-02T17:49:12Z</time></trkpt>
<trkpt lat="50.676787" lon="5.019050"><time>2026-05-02T17:59:12Z</time></trkpt>
<trkpt lat="50.677426" lon="5.017458"><time>2026-05-02T18:09:12Z</time></trkpt>
<trkpt lat="50.675889" lon="5.016505"><time>2026-05-02T18:19:12Z</time></trkpt>
</trkseg>
</trk>
<trk>
<name>lhawa22</name>
<cmt>q</cmt>
<desc>Wansin Sentier n°22 </desc>
<link href="https://chemins.be/wansin/sentier/22"/><trkseg>
<trkpt lat="50.678438" lon="5.010629"><time>2026-05-02T17:29:12Z</time></trkpt>
<trkpt lat="50.676920" lon="5.009392"><time>2026-05-02T17:39:12Z</time></trkpt>
<trkpt lat="50.675197" lon="5.007775"><time>2026-05-02T17:49:12Z</time></trkpt>
</trkseg>
</trk>
<trk>
<name>lhawa23</name>
<cmt>q</cmt>
<desc>Wansin Sentier n°23 </desc>
<link href="https://chemins.be/wansin/sentier/23"/><trkseg>
<trkpt lat="50.679039" lon="5.018883"><time>2026-05-02T17:29:12Z</time></trkpt>
<trkpt lat="50.680041" lon="5.015715"><time>2026-05-02T17:39:12Z</time></trkpt>
<trkpt lat="50.680821" lon="5.015221"><time>2026-05-02T17:49:12Z</time></trkpt>
</trkseg>
</trk>
<trk>
<name>lhawa24</name>
<cmt>v</cmt>
<desc>Wansin Sentier n°24 </desc>
<link href="https://chemins.be/wansin/sentier/24"/><trkseg>
<trkpt lat="50.679373" lon="5.010647"><time>2026-05-02T17:29:12Z</time></trkpt>
<trkpt lat="50.679261" lon="5.011003"><time>2026-05-02T17:39:12Z</time></trkpt>
</trkseg></trk>
<trk>
<name>lhawa24</name>
<cmt>q</cmt>
<desc>Wansin Sentier n°24 </desc>
<link href="https://chemins.be/wansin/sentier/24"/><trkseg>
<trkpt lat="50.679261" lon="5.011003"><time>2026-05-02T17:39:12Z</time></trkpt>
<trkpt lat="50.678766" lon="5.012077"><time>2026-05-02T17:49:12Z</time></trkpt>
</trkseg>
</trk>
<trk>
<name>lhawa25</name>
<cmt>q</cmt>
<desc>Wansin Sentier n°25 </desc>
<link href="https://chemins.be/wansin/sentier/25"/><trkseg>
<trkpt lat="50.675412" lon="5.024762"><time>2026-05-02T17:29:12Z</time></trkpt>
<trkpt lat="50.675701" lon="5.024554"><time>2026-05-02T17:39:12Z</time></trkpt>
<trkpt lat="50.676866" lon="5.022094"><time>2026-05-02T17:49:12Z</time></trkpt>
<trkpt lat="50.677945" lon="5.020440"><time>2026-05-02T17:59:12Z</time></trkpt>
</trkseg>
</trk>
<trk>
<name>lhawa26</name>
<cmt>r</cmt>
<desc>Wansin Sentier n°26 </desc>
<link href="https://chemins.be/wansin/sentier/26"/><trkseg>
<trkpt lat="50.674206" lon="5.021760"><time>2026-05-02T17:29:12Z</time></trkpt>
<trkpt lat="50.674078" lon="5.022240"><time>2026-05-02T17:39:12Z</time></trkpt>
</trkseg></trk>
<trk>
<name>lhawa26</name>
<cmt>q</cmt>
<desc>Wansin Sentier n°26 </desc>
<link href="https://chemins.be/wansin/sentier/26"/><trkseg>
<trkpt lat="50.674078" lon="5.022240"><time>2026-05-02T17:39:12Z</time></trkpt>
<trkpt lat="50.674219" lon="5.022808"><time>2026-05-02T17:49:12Z</time></trkpt>
<trkpt lat="50.674223" lon="5.023572"><time>2026-05-02T17:59:12Z</time></trkpt>
<trkpt lat="50.674110" lon="5.024476"><time>2026-05-02T18:09:12Z</time></trkpt>
</trkseg>
</trk>
<trk>
<name>lhawa28</name>
<cmt>q</cmt>
<desc>Wansin Sentier n°28 </desc>
<link href="https://chemins.be/wansin/sentier/28"/><trkseg>
<trkpt lat="50.678704" lon="5.017710"><time>2026-05-02T17:29:12Z</time></trkpt>
<trkpt lat="50.678926" lon="5.017403"><time>2026-05-02T17:39:12Z</time></trkpt>
<trkpt lat="50.678876" lon="5.016916"><time>2026-05-02T17:49:12Z</time></trkpt>
<trkpt lat="50.678980" lon="5.015936"><time>2026-05-02T17:59:12Z</time></trkpt>
<trkpt lat="50.679135" lon="5.015643"><time>2026-05-02T18:09:12Z</time></trkpt>
<trkpt lat="50.679125" lon="5.015329"><time>2026-05-02T18:19:12Z</time></trkpt>
<trkpt lat="50.680290" lon="5.011709"><time>2026-05-02T18:29:12Z</time></trkpt>
<trkpt lat="50.681097" lon="5.010937"><time>2026-05-02T18:39:12Z</time></trkpt>
</trkseg>
</trk>
<trk>
<name>lhawa29</name>
<cmt>q</cmt>
<desc>Wansin Sentier n°29 </desc>
<link href="https://chemins.be/wansin/sentier/29"/><trkseg>
<trkpt lat="50.678611" lon="5.015830"><time>2026-05-02T17:29:12Z</time></trkpt>
<trkpt lat="50.677897" lon="5.015576"><time>2026-05-02T17:39:12Z</time></trkpt>
</trkseg>
</trk>
<trk>
<name>lhawa3</name>
<cmt>v</cmt>
<desc>Wansin Chemin n°3 </desc>
<link href="https://chemins.be/wansin/chemin/3"/><trkseg>
<trkpt lat="50.674062" lon="5.021758"><time>2026-05-02T17:29:12Z</time></trkpt>
<trkpt lat="50.673806" lon="5.019698"><time>2026-05-02T17:39:12Z</time></trkpt>
<trkpt lat="50.673257" lon="5.019535"><time>2026-05-02T17:49:12Z</time></trkpt>
<trkpt lat="50.671933" lon="5.018835"><time>2026-05-02T17:59:12Z</time></trkpt>
<trkpt lat="50.670766" lon="5.018737"><time>2026-05-02T18:09:12Z</time></trkpt>
<trkpt lat="50.670124" lon="5.018033"><time>2026-05-02T18:19:12Z</time></trkpt>
<trkpt lat="50.666425" lon="5.013115"><time>2026-05-02T18:29:12Z</time></trkpt>
<trkpt lat="50.663666" lon="5.010832"><time>2026-05-02T18:39:12Z</time></trkpt>
<trkpt lat="50.662469" lon="5.009176"><time>2026-05-02T18:49:12Z</time></trkpt>
</trkseg>
</trk>
<trk>
<name>lhawa30</name>
<cmt>q</cmt>
<desc>Wansin Sentier n°30 </desc>
<link href="https://chemins.be/wansin/sentier/30"/><trkseg>
<trkpt lat="50.677695" lon="5.019252"><time>2026-05-02T17:29:12Z</time></trkpt>
<trkpt lat="50.677475" lon="5.018767"><time>2026-05-02T17:39:12Z</time></trkpt>
<trkpt lat="50.677080" lon="5.018338"><time>2026-05-02T17:49:12Z</time></trkpt>
</trkseg>
</trk>
<trk>
<name>lhawa4</name>
<cmt>v</cmt>
<desc>Wansin Chemin n°4 </desc>
<link href="https://chemins.be/wansin/chemin/4"/><trkseg>
<trkpt lat="50.674870" lon="5.010495"><time>2026-05-02T17:29:12Z</time></trkpt>
<trkpt lat="50.673945" lon="5.009680"><time>2026-05-02T17:39:12Z</time></trkpt>
<trkpt lat="50.672041" lon="5.009851"><time>2026-05-02T17:49:12Z</time></trkpt>
<trkpt lat="50.668750" lon="5.006676"><time>2026-05-02T17:59:12Z</time></trkpt>
<trkpt lat="50.667472" lon="5.006504"><time>2026-05-02T18:09:12Z</time></trkpt>
<trkpt lat="50.665514" lon="5.006933"><time>2026-05-02T18:19:12Z</time></trkpt>
<trkpt lat="50.663853" lon="5.006386"><time>2026-05-02T18:29:12Z</time></trkpt>
</trkseg>
</trk>
<trk>
<name>lhawa5</name>
<cmt>v</cmt>
<desc>Wansin Chemin n°5 </desc>
<link href="https://chemins.be/wansin/chemin/5"/><trkseg>
<trkpt lat="50.673257" lon="5.019527"><time>2026-05-02T17:29:12Z</time></trkpt>
<trkpt lat="50.671745" lon="5.021372"><time>2026-05-02T17:39:12Z</time></trkpt>
<trkpt lat="50.671179" lon="5.021552"><time>2026-05-02T17:49:12Z</time></trkpt>
<trkpt lat="50.669612" lon="5.023269"><time>2026-05-02T17:59:12Z</time></trkpt>
<trkpt lat="50.667918" lon="5.023570"><time>2026-05-02T18:09:12Z</time></trkpt>
</trkseg>
</trk>
<trk>
<name>lhawa6</name>
<cmt>v</cmt>
<desc>Wansin Chemin n°6 </desc>
<link href="https://chemins.be/wansin/chemin/6"/><trkseg>
<trkpt lat="50.679643" lon="5.009243"><time>2026-05-02T17:29:12Z</time></trkpt>
<trkpt lat="50.678776" lon="5.008382"><time>2026-05-02T17:39:12Z</time></trkpt>
<trkpt lat="50.679410" lon="5.007372"><time>2026-05-02T17:49:12Z</time></trkpt>
<trkpt lat="50.680359" lon="5.004824"><time>2026-05-02T17:59:12Z</time></trkpt>
<trkpt lat="50.680639" lon="5.003059"><time>2026-05-02T18:09:12Z</time></trkpt>
<trkpt lat="50.682603" lon="4.999764"><time>2026-05-02T18:19:12Z</time></trkpt>
<trkpt lat="50.682854" lon="4.999027"><time>2026-05-02T18:29:12Z</time></trkpt>
<trkpt lat="50.683051" lon="4.998726"><time>2026-05-02T18:39:12Z</time></trkpt>
<trkpt lat="50.683098" lon="4.998279"><time>2026-05-02T18:49:12Z</time></trkpt>
</trkseg>
</trk>
<trk>
<name>lhawa7</name>
<cmt>v</cmt>
<desc>Wansin Chemin n°7 Rue d'Orp</desc>
<link href="https://chemins.be/wansin/chemin/7"/><trkseg>
<trkpt lat="50.680098" lon="5.011362"><time>2026-05-02T17:29:12Z</time></trkpt>
<trkpt lat="50.680436" lon="5.011038"><time>2026-05-02T17:39:12Z</time></trkpt>
<trkpt lat="50.680877" lon="5.010420"><time>2026-05-02T17:49:12Z</time></trkpt>
<trkpt lat="50.681313" lon="5.009704"><time>2026-05-02T17:59:12Z</time></trkpt>
<trkpt lat="50.681559" lon="5.008972"><time>2026-05-02T18:09:12Z</time></trkpt>
<trkpt lat="50.681808" lon="5.007871"><time>2026-05-02T18:19:12Z</time></trkpt>
</trkseg></trk>
<trk>
<name>lhawa7</name>
<cmt>r</cmt>
<desc>Wansin Chemin n°7 Rue d'Orp</desc>
<link href="https://chemins.be/wansin/chemin/7"/><trkseg>
<trkpt lat="50.681808" lon="5.007871"><time>2026-05-02T18:19:12Z</time></trkpt>
<trkpt lat="50.684267" lon="5.003787"><time>2026-05-02T18:29:12Z</time></trkpt>
</trkseg>
</trk>
</gpx>